[[{"header":{"parameterUnit":"m.s-1","parameterCategory":1,"la1":30.2991,"la2":30.254,"lo1":-89.0895,"lo2":-89.0444,"dy":0.0017,"dx":0.0017,"nx":28,"ny":28,"refTime":"2025-07-07T21:00:00:Z","depth":0,"parameterNumber":2,"parameterNumberName":"U-component_of_WINDS"},"data":[0,0,0,0,0,0,0,0,0,0,0,0,0,0,0,0,0,0,0,0,0,0,0,0,0,0,0,0,0,0,0,0,0,0,0,0,0,0,0,0,0,0,0,0,0,0,0,0,0,0,0,0,0,0,0,0,0,0,2.723,2.7232,0,2.7406,2.7408,2.741,2.7472,2.7471,2.7471,2.747,2.7655,2.766,2.7666,0,0,0,0,0,0,0,0,0,0,0,0,0,2.6952,2.6957,2.723,2.7232,2.7234,2.7405,2.7408,2.741,2.7472,2.7471,2.747,2.747,2.7653,2.766,2.7666,0,0,0,0,0,0,0,0,0,0,0,0,0,2.7095,2.6958,2.7229,2.7285,2.7292,2.7405,2.7408,2.7411,2.7472,2.7471,2.747,2.7469,2.7651,2.7659,2.7667,2.7739,0,0,2.7693,2.7696,0,0,0,0,0,0,0,0,2.7087,2.7105,2.7275,2.7282,2.7289,2.7416,2.7378,2.7521,2.7472,2.7404,2.747,2.7469,2.7577,2.7591,2.7626,2.7747,2.7755,2.7694,2.7699,2.7702,2.7704,0,0,0,0,0,0,0,2.7077,2.7098,2.7299,2.7277,2.7286,2.7303,2.7323,2.7405,2.7494,2.741,2.7415,2.7434,2.758,2.7618,2.7631,2.7758,2.7693,2.7701,2.7706,2.7709,2.7947,2.7949,0,0,0,0,0,0,2.7057,2.7089,2.7294,2.7305,2.7183,2.7309,2.7331,2.7376,2.7493,2.751,2.7435,2.7437,2.7604,2.7621,2.7638,2.7729,2.7702,2.771,2.7715,2.7946,2.7948,2.7949,0,0,0,0,0,0,2.7051,2.7074,2.7287,2.7198,2.7227,2.7315,2.7366,2.738,2.7418,2.7512,2.7529,2.7457,2.7604,2.7626,2.7713,2.7736,2.7714,2.7721,2.7944,2.7947,2.7948,2.7911,0,0,0,0,0,0,2.7042,2.7072,2.7098,2.7198,2.7231,2.7357,2.7367,2.7384,2.7432,2.7435,2.7537,2.7553,2.7605,2.77,2.7721,2.7747,2.7728,2.7943,2.7945,2.7948,2.7911,2.7912,2.7913,0,0,0,0,0,2.7032,2.7082,2.7099,2.7124,2.7266,2.7358,2.7377,2.7435,2.7433,2.7461,2.7522,2.755,2.773,2.7708,2.7733,2.7762,2.7942,2.7945,2.7948,2.7911,2.7912,2.7913,0,0,0,0,0,0,2.6984,2.7096,2.7117,2.72,2.7269,2.7368,2.7406,2.7434,2.7506,2.7507,2.7577,2.7599,2.7681,2.773,2.7704,2.7837,2.7838,2.7846,2.7801,2.7803,2.7804,2.779,2.7735,0,0,0,0,0,2.6982,2.7046,2.7142,2.7206,2.724,2.7316,2.7359,2.7397,2.7472,2.7502,2.7569,2.7642,2.7716,2.7763,2.7835,2.7919,2.7943,2.7951,2.7952,2.7952,2.7958,2.8007,2.8011,2.7959,2.7959,2.7959,0,0,2.6981,2.705,2.7087,2.7198,2.7256,2.7322,2.7341,2.741,2.746,2.7513,2.7598,2.7651,2.7737,2.7822,2.7863,2.7866,2.7978,2.7956,2.7955,2.7962,2.801,2.8015,2.8019,2.7961,2.7961,2.796,0,0,2.7012,2.707,2.713,2.7188,2.7275,2.7326,2.734,2.7436,2.7472,2.7559,2.76,2.7662,2.7787,2.7846,2.7893,2.7948,2.7976,2.797,2.7974,2.802,2.8025,2.8029,2.8048,2.8054,2.7976,2.7975,2.7975,0,2.6999,2.7098,2.7158,2.7225,2.7273,2.7323,2.7385,2.7439,2.7546,2.7579,2.758,2.7738,2.78,2.79,2.7913,2.795,2.7969,2.7958,2.8019,2.8024,2.8028,2.8047,2.8054,2.7974,2.7974,2.7974,2.7974,0,2.7079,2.7147,2.7186,2.7286,2.7339,2.7403,2.7474,2.7521,2.7555,2.7606,2.7694,2.777,2.7859,2.7886,2.7921,2.7992,2.7991,2.8005,2.8007,2.8031,2.805,2.8058,2.7972,2.7973,2.7973,2.7973,0,0,2.7082,2.7215,2.7228,2.7274,2.7375,2.743,2.7497,2.7583,2.7621,2.7694,2.7753,2.7858,2.7871,2.7924,2.7966,2.8007,2.8045,2.8017,2.802,2.8019,2.8128,2.8116,2.8124,2.8065,2.8067,2.8068,2.8121,0,2.7126,2.7246,2.7302,2.7398,2.7462,2.7512,2.7571,2.7639,2.769,2.7753,2.781,2.7882,2.7895,2.7927,2.797,2.8031,2.8068,2.8029,2.8121,2.8124,2.8097,2.8134,2.8122,2.8168,2.8129,2.813,2.8131,0,2.7192,2.7262,2.7364,2.7457,2.7487,2.7538,2.7621,2.7681,2.7761,2.7795,2.7854,2.7895,2.7969,2.7966,2.807,2.8042,2.8084,2.812,2.8123,2.8134,2.8128,2.8145,2.8184,2.8191,2.8144,2.8143,2.8142,0,2.7183,2.7305,2.7381,2.742,2.753,2.7565,2.7613,2.7692,2.774,2.7814,2.7846,2.7928,2.7973,2.8036,2.8098,2.8091,2.8197,2.8199,2.8228,2.8226,2.8247,2.8244,2.8292,2.8275,2.8275,2.8274,2.8274,0,2.7225,2.7285,2.7379,2.7426,2.7496,2.7561,2.7628,2.768,2.775,2.7809,2.7858,2.7913,2.7993,2.8058,2.8108,2.8186,2.8207,2.8237,2.8249,2.8232,2.8228,2.826,2.8258,2.8276,2.8276,2.8276,2.8275,0,2.7227,2.7292,2.7379,2.7476,2.7502,2.7549,2.7634,2.7682,2.7735,2.781,2.7831,2.7915,2.7994,2.8063,2.8169,2.8202,2.8283,2.8298,2.8255,2.8262,2.8286,2.8283,2.8356,2.8369,2.8342,2.8342,2.8342,0,2.7249,2.7296,2.7399,2.7441,2.7488,2.7556,2.7605,2.7672,2.7721,2.7816,2.7853,2.7936,2.8005,2.8131,2.8202,2.8283,2.8301,2.8321,2.8313,2.8295,2.8301,2.8297,2.8302,2.8321,2.8321,2.8321,2.8321,0,2.7281,2.7311,2.7378,2.7458,2.7515,2.7581,2.7649,2.7681,2.7761,2.7814,2.7895,2.7949,2.8057,2.8139,2.8228,2.828,2.8314,2.8322,2.8333,2.8316,2.8288,2.8303,2.8255,2.832,2.832,2.832,2.832,2.832,2.7293,2.7338,2.7416,2.7491,2.7549,2.7611,2.7661,2.772,2.7788,2.788,2.7916,2.7999,2.8079,2.8202,2.8254,2.8321,2.8326,2.8342,2.8346,2.8348,2.8345,2.8278,2.8337,2.8337,2.8338,2.8338,2.8338,0,2.7327,2.738,2.7448,2.7541,2.76,2.7625,2.7702,2.775,2.7822,2.7893,2.796,2.8054,2.8134,2.8212,2.8296,2.8335,2.8353,2.8355,2.8352,2.8364,2.8336,2.8318,2.8339,2.8339,2.8339,2.8339,2.8339,2.8339,2.7351,2.7428,2.7467,2.7574,2.7627,2.7707,2.7749,2.7807,2.7865,2.7966,2.8032,2.8082,2.8157,2.8247,2.8322,2.8343,2.8372,2.8369,2.8394,2.8367,2.8366,2.8365,2.8348,2.8375,2.8375,2.8417,2.8417,2.8417]},{"header":{"parameterUnit":"m.s-1","parameterCategory":1,"la1":30.2991,"la2":30.254,"lo1":-89.0895,"lo2":-89.0444,"dy":0.0017,"dx":0.0017,"nx":28,"ny":28,"refTime":"2025-07-07T21:00:00:Z","depth":0,"parameterNumber":3,"parameterNumberName":"V-component_of_WINDS"},"data":[0,0,0,0,0,0,0,0,0,0,0,0,0,0,0,0,0,0,0,0,0,0,0,0,0,0,0,0,0,0,0,0,0,0,0,0,0,0,0,0,0,0,0,0,0,0,0,0,0,0,0,0,0,0,0,0,0,0,3.8215,3.8216,0,3.8273,3.8273,3.8274,3.8283,3.8283,3.8282,3.8282,3.8335,3.8337,3.8339,0,0,0,0,0,0,0,0,0,0,0,0,0,3.8106,3.8108,3.8215,3.8216,3.8217,3.8273,3.8274,3.8274,3.8283,3.8283,3.8282,3.8282,3.8335,3.8337,3.8339,0,0,0,0,0,0,0,0,0,0,0,0,0,3.8157,3.8108,3.8215,3.8228,3.823,3.8273,3.8274,3.8274,3.8284,3.8283,3.8282,3.8281,3.8334,3.8337,3.834,3.8372,0,0,3.8348,3.8349,0,0,0,0,0,0,0,0,3.8154,3.8161,3.8225,3.8227,3.8229,3.827,3.8255,3.8307,3.8284,3.8263,3.8282,3.8281,3.8314,3.8318,3.8331,3.8374,3.8376,3.8348,3.835,3.8351,3.8352,0,0,0,0,0,0,0,3.8151,3.8159,3.8238,3.8226,3.8229,3.8229,3.8235,3.8265,3.8292,3.8265,3.8266,3.8273,3.8315,3.8328,3.8332,3.8377,3.8348,3.8351,3.8353,3.8354,3.8447,3.8448,0,0,0,0,0,0,3.8146,3.8156,3.8236,3.8239,3.8189,3.8231,3.8239,3.8258,3.8291,3.8296,3.8273,3.8273,3.8323,3.8329,3.8334,3.8372,3.8351,3.8354,3.8356,3.8446,3.8447,3.8448,0,0,0,0,0,0,3.8143,3.8153,3.8234,3.8198,3.8208,3.8234,3.8255,3.8259,3.8272,3.8298,3.8302,3.8282,3.8323,3.833,3.8362,3.8374,3.8355,3.8358,3.8445,3.8446,3.8448,3.8449,0,0,0,0,0,0,3.814,3.8152,3.8166,3.8198,3.821,3.8263,3.8256,3.8261,3.8278,3.8278,3.8307,3.8311,3.8323,3.8358,3.8365,3.8377,3.836,3.8444,3.8446,3.8447,3.8448,3.845,3.8452,0,0,0,0,0,3.8136,3.8164,3.8167,3.8176,3.8229,3.8264,3.827,3.8285,3.8279,3.8292,3.8308,3.831,3.8372,3.8361,3.8369,3.8383,3.8444,3.8445,3.8447,3.8447,3.845,3.8452,0,0,0,0,0,0,3.8131,3.8168,3.8172,3.8211,3.8234,3.8265,3.8282,3.8287,3.8311,3.831,3.8325,3.8332,3.8362,3.8376,3.8363,3.8414,3.8407,3.841,3.8404,3.8407,3.8409,3.8404,3.8362,0,0,0,0,0,3.8134,3.8162,3.8192,3.8223,3.8235,3.8257,3.8272,3.8282,3.8305,3.8315,3.8333,3.8354,3.8378,3.8393,3.8417,3.845,3.8455,3.8464,3.8465,3.8467,3.8469,3.8486,3.8489,3.8454,3.8454,3.8454,0,0,3.8142,3.8165,3.8181,3.8223,3.8242,3.8267,3.8265,3.8292,3.831,3.8318,3.835,3.8364,3.8388,3.8421,3.8436,3.8433,3.848,3.8469,3.847,3.8472,3.8488,3.8491,3.8494,3.8455,3.8455,3.8455,0,0,3.8167,3.8189,3.8217,3.8236,3.8265,3.8279,3.8286,3.8316,3.8326,3.8358,3.8364,3.8384,3.8426,3.8442,3.8456,3.8487,3.8489,3.8494,3.8504,3.8519,3.8522,3.8525,3.8534,3.8537,3.8496,3.8496,3.8496,0,3.8172,3.8213,3.823,3.8257,3.8274,3.8284,3.831,3.8327,3.8361,3.8372,3.8368,3.8419,3.8437,3.8472,3.8479,3.8491,3.8497,3.849,3.8521,3.8523,3.8526,3.8535,3.8538,3.8496,3.8496,3.8496,3.8496,0,3.8216,3.8244,3.8262,3.8297,3.8316,3.8343,3.8361,3.8378,3.8385,3.8398,3.8429,3.845,3.8477,3.8486,3.8493,3.8522,3.8519,3.8518,3.8511,3.8529,3.8538,3.8541,3.8497,3.8497,3.8497,3.8497,0,0,3.8241,3.8284,3.829,3.8305,3.8337,3.8358,3.8383,3.8411,3.8424,3.8447,3.8468,3.8502,3.8501,3.8516,3.8525,3.8539,3.8559,3.8536,3.8536,3.8538,3.859,3.8589,3.8593,3.8561,3.8562,3.8562,3.8587,0,3.8269,3.8318,3.8333,3.8372,3.8397,3.8405,3.8427,3.8448,3.8461,3.8481,3.8495,3.8518,3.8516,3.8525,3.8539,3.8554,3.8569,3.8552,3.8578,3.8578,3.857,3.8598,3.8598,3.8621,3.8591,3.8591,3.8592,0,3.8309,3.8334,3.8376,3.8404,3.8414,3.8434,3.846,3.8481,3.8503,3.8511,3.8528,3.8535,3.856,3.8552,3.8584,3.8572,3.8583,3.8592,3.8593,3.8595,3.8585,3.8599,3.8628,3.8631,3.8597,3.8597,3.8596,0,3.832,3.8364,3.8395,3.8407,3.8441,3.8454,3.8468,3.849,3.8505,3.8527,3.8537,3.856,3.8573,3.859,3.8602,3.8596,3.8633,3.8626,3.8638,3.8638,3.8645,3.8644,3.8675,3.8654,3.8654,3.8654,3.8654,0,3.8349,3.8374,3.84,3.8419,3.8446,3.8462,3.8488,3.8502,3.8521,3.8541,3.8549,3.8567,3.8583,3.8602,3.8612,3.8636,3.8642,3.8647,3.8649,3.8646,3.8645,3.8653,3.8651,3.8655,3.8655,3.8655,3.8655,0,3.8366,3.8385,3.8418,3.8447,3.8455,3.8474,3.8497,3.8514,3.8527,3.8552,3.8558,3.8578,3.8601,3.8615,3.8644,3.865,3.8677,3.8679,3.8669,3.867,3.8681,3.8679,3.8717,3.8722,3.8699,3.8699,3.8699,0,3.8383,3.8403,3.8434,3.8449,3.8463,3.8487,3.8503,3.8518,3.8534,3.856,3.8573,3.8597,3.8617,3.8653,3.8668,3.8689,3.8691,3.8703,3.8694,3.869,3.869,3.8688,3.8689,3.8704,3.8704,3.8704,3.8704,0,3.8411,3.8419,3.8442,3.8469,3.8487,3.8508,3.8529,3.854,3.8558,3.8575,3.8599,3.8615,3.8644,3.8667,3.869,3.8701,3.8705,3.8707,3.8711,3.8707,3.87,3.8703,3.8672,3.8706,3.8706,3.8706,3.8706,3.8706,3.8427,3.8445,3.8469,3.8494,3.8511,3.853,3.8547,3.8563,3.8584,3.861,3.8618,3.8643,3.8662,3.8694,3.8706,3.8724,3.8722,3.8728,3.8729,3.873,3.8729,3.8698,3.8728,3.8728,3.8728,3.8728,3.8728,0,3.8454,3.847,3.8493,3.8522,3.8541,3.8545,3.8568,3.8583,3.8605,3.8625,3.8644,3.8671,3.8692,3.871,3.8731,3.8742,3.8744,3.8747,3.8746,3.8748,3.8731,3.8725,3.8745,3.8745,3.8745,3.8745,3.8745,3.8745,3.847,3.8499,3.8509,3.8546,3.8561,3.8587,3.8599,3.8616,3.8631,3.8661,3.868,3.8691,3.8709,3.8732,3.8751,3.8755,3.8762,3.8765,3.8769,3.8752,3.875,3.8748,3.8742,3.8766,3.8766,3.8785,3.8785,3.8785]}]]